[[{"header":{"parameterUnit":"m.s-1","parameterCategory":1,"la1":30.2991,"la2":30.254,"lo1":-89.0895,"lo2":-89.0444,"dy":0.0017,"dx":0.0017,"nx":28,"ny":28,"refTime":"2025-11-04T03:00:00:Z","depth":0,"parameterNumber":2,"parameterNumberName":"U-component_of_WINDS"},"data":[0,0,0,0,0,0,0,0,0,0,0,0,0,0,0,0,0,0,0,0,0,0,0,0,0,0,0,0,0,0,0,0,0,0,0,0,0,0,0,0,0,0,0,0,0,0,0,0,0,0,0,0,0,0,0,0,0,0,-2.8376,-2.8377,0,-2.8447,-2.8448,-2.8449,-2.8383,-2.8381,-2.8378,-2.8376,-2.8448,-2.8453,-2.8457,0,0,0,0,0,0,0,0,0,0,0,0,0,-2.8184,-2.8188,-2.8376,-2.8377,-2.8378,-2.8447,-2.8448,-2.8449,-2.8384,-2.8381,-2.8378,-2.8375,-2.8447,-2.8452,-2.8457,0,0,0,0,0,0,0,0,0,0,0,0,0,-2.8263,-2.819,-2.8376,-2.8354,-2.8353,-2.8447,-2.8448,-2.8449,-2.8385,-2.8381,-2.8377,-2.8373,-2.8445,-2.8452,-2.8458,-2.8578,0,0,-2.8478,-2.8481,0,0,0,0,0,0,0,0,-2.8258,-2.827,-2.8356,-2.8356,-2.8354,-2.8402,-2.8407,-2.8492,-2.8386,-2.8372,-2.8376,-2.8371,-2.8436,-2.8443,-2.8465,-2.8581,-2.8584,-2.8479,-2.8483,-2.8486,-2.8487,0,0,0,0,0,0,0,-2.8253,-2.8266,-2.8404,-2.8358,-2.8356,-2.834,-2.8347,-2.8423,-2.8426,-2.8373,-2.8369,-2.8378,-2.8435,-2.8459,-2.8466,-2.8585,-2.8479,-2.8484,-2.8488,-2.8491,-2.8802,-2.8807,0,0,0,0,0,0,-2.825,-2.8262,-2.8402,-2.8406,-2.8296,-2.8347,-2.8355,-2.8391,-2.8425,-2.8426,-2.8381,-2.8375,-2.845,-2.8459,-2.8469,-2.861,-2.8485,-2.8492,-2.8495,-2.8798,-2.8803,-2.8808,0,0,0,0,0,0,-2.8246,-2.8263,-2.8399,-2.8333,-2.8349,-2.8355,-2.8396,-2.8394,-2.8418,-2.8431,-2.8431,-2.8405,-2.8447,-2.846,-2.8551,-2.8612,-2.8495,-2.8501,-2.8793,-2.88,-2.8806,-2.8895,0,0,0,0,0,0,-2.8241,-2.8262,-2.8308,-2.8335,-2.8353,-2.848,-2.84,-2.8399,-2.843,-2.8422,-2.8453,-2.8455,-2.8445,-2.8542,-2.8558,-2.8619,-2.8506,-2.8788,-2.8796,-2.8804,-2.8886,-2.8904,-2.8918,0,0,0,0,0,-2.8234,-2.833,-2.831,-2.8327,-2.841,-2.8484,-2.8494,-2.8481,-2.8435,-2.8481,-2.8489,-2.8454,-2.8603,-2.8551,-2.8569,-2.8633,-2.8784,-2.8794,-2.8803,-2.8879,-2.89,-2.8918,0,0,0,0,0,0,-2.831,-2.8333,-2.8311,-2.8419,-2.845,-2.8473,-2.853,-2.8504,-2.8548,-2.8539,-2.8521,-2.8529,-2.8625,-2.8638,-2.858,-2.8751,-2.8686,-2.87,-2.8738,-2.8758,-2.8773,-2.8767,-2.8511,0,0,0,0,0,-2.8339,-2.8397,-2.8414,-2.8507,-2.8524,-2.8525,-2.8556,-2.8544,-2.8575,-2.8588,-2.8602,-2.8634,-2.8688,-2.8724,-2.8774,-2.8889,-2.8894,-2.8942,-2.8957,-2.897,-2.8982,-2.9043,-2.9064,-2.884,-2.884,-2.884,0,0,-2.84,-2.842,-2.8457,-2.8523,-2.8546,-2.8606,-2.8536,-2.8603,-2.8647,-2.8598,-2.8685,-2.8697,-2.8731,-2.8835,-2.8881,-2.8849,-2.9045,-2.8983,-2.8993,-2.8998,-2.9055,-2.9076,-2.9095,-2.8847,-2.8845,-2.8844,0,0,-2.8541,-2.8562,-2.8641,-2.8666,-2.8701,-2.8701,-2.872,-2.8747,-2.8753,-2.884,-2.8804,-2.8857,-2.8951,-2.8976,-2.9002,-2.9154,-2.9123,-2.9171,-2.9253,-2.9312,-2.933,-2.9345,-2.9399,-2.9418,-2.9183,-2.9183,-2.9183,0,-2.8611,-2.8701,-2.8686,-2.8755,-2.8785,-2.8743,-2.8823,-2.8848,-2.8898,-2.8919,-2.8883,-2.8999,-2.9019,-2.9128,-2.9165,-2.9187,-2.9208,-2.9166,-2.9329,-2.9344,-2.9358,-2.9409,-2.9429,-2.9188,-2.9188,-2.9187,-2.9187,0,-2.8786,-2.8849,-2.8908,-2.8957,-2.8994,-2.9069,-2.9065,-2.9104,-2.9088,-2.9092,-2.9181,-2.9204,-2.9258,-2.9283,-2.9269,-2.939,-2.9369,-2.9331,-2.9266,-2.9385,-2.9432,-2.9452,-2.9196,-2.9194,-2.9193,-2.9191,0,0,-2.8975,-2.9015,-2.9037,-2.9059,-2.9095,-2.9143,-2.9216,-2.9269,-2.9302,-2.9339,-2.9398,-2.9479,-2.9444,-2.9473,-2.9462,-2.9514,-2.9632,-2.947,-2.947,-2.9498,-2.9765,-2.9792,-2.9815,-2.9612,-2.9616,-2.9619,-2.9762,0,-2.9116,-2.9242,-2.9231,-2.935,-2.9407,-2.9369,-2.9432,-2.9462,-2.9467,-2.9517,-2.9523,-2.958,-2.9531,-2.9548,-2.9598,-2.9607,-2.9685,-2.9596,-2.9667,-2.967,-2.9658,-2.984,-2.9868,-3.0002,-2.978,-2.9783,-2.9786,0,-2.9297,-2.9339,-2.9465,-2.9492,-2.9515,-2.9572,-2.962,-2.9668,-2.97,-2.9701,-2.9734,-2.9713,-2.9786,-2.9721,-2.9821,-2.9761,-2.979,-2.9798,-2.9803,-2.9808,-2.9734,-2.9848,-3.0045,-3.0064,-2.9815,-2.9812,-2.981,0,-2.9421,-2.9509,-2.9595,-2.9615,-2.965,-2.969,-2.9707,-2.9735,-2.9768,-2.9809,-2.983,-2.988,-2.9907,-2.9947,-2.994,-2.9893,-3.0042,-2.9976,-3.0044,-3.0044,-3.0076,-3.0074,-3.0279,-3.0097,-3.0097,-3.0097,-3.0096,0,-2.9579,-2.9656,-2.9651,-2.9704,-2.979,-2.9777,-2.9862,-2.9874,-2.9899,-2.9954,-2.9924,-2.9976,-2.9965,-3.0016,-3.0012,-3.0095,-3.0108,-3.011,-3.0108,-3.0112,-3.0112,-3.0129,-3.0119,-3.0102,-3.0101,-3.01,-3.0099,0,-2.9731,-2.973,-2.9821,-2.9847,-2.9855,-2.9917,-2.9938,-2.9988,-2.9992,-3.0061,-3.0076,-3.0082,-3.0141,-3.0139,-3.0207,-3.0204,-3.0306,-3.0293,-3.0295,-3.0291,-3.0359,-3.0352,-3.0581,-3.061,-3.0411,-3.0413,-3.0415,0,-2.983,-2.9889,-2.9921,-2.9955,-2.9974,-3.0029,-3.0062,-3.0052,-3.0087,-3.0129,-3.0174,-3.023,-3.0274,-3.0371,-3.0381,-3.0432,-3.042,-3.0497,-3.0427,-3.043,-3.042,-3.0416,-3.0421,-3.051,-3.0512,-3.0514,-3.0515,0,-3.0007,-3.0004,-3.0053,-3.0102,-3.0142,-3.018,-3.0215,-3.0245,-3.0238,-3.028,-3.034,-3.0374,-3.0443,-3.0499,-3.0548,-3.0565,-3.0539,-3.0538,-3.0556,-3.056,-3.0558,-3.0558,-3.033,-3.0532,-3.053,-3.0529,-3.0528,-3.0527,-3.0135,-3.0186,-3.0215,-3.0271,-3.0296,-3.0329,-3.0377,-3.0387,-3.0437,-3.0491,-3.0483,-3.055,-3.0581,-3.0644,-3.0665,-3.0718,-3.069,-3.0717,-3.0724,-3.073,-3.0737,-3.0551,-3.0727,-3.0726,-3.0726,-3.0725,-3.0725,0,-3.031,-3.0327,-3.0378,-3.0428,-3.0471,-3.0444,-3.0481,-3.0519,-3.0578,-3.0609,-3.0654,-3.0723,-3.0777,-3.0792,-3.0845,-3.0884,-3.0873,-3.0898,-3.0894,-3.0898,-3.0759,-3.0737,-3.0905,-3.0905,-3.0905,-3.0905,-3.0905,-3.0905,-3.0405,-3.0488,-3.0489,-3.0585,-3.0602,-3.0667,-3.069,-3.0721,-3.0746,-3.0824,-3.0869,-3.0878,-3.0903,-3.0957,-3.1006,-3.1009,-3.1029,-3.1058,-3.1057,-3.0926,-3.0908,-3.0891,-3.087,-3.1063,-3.1064,-3.1191,-3.1192,-3.1193]},{"header":{"parameterUnit":"m.s-1","parameterCategory":1,"la1":30.2991,"la2":30.254,"lo1":-89.0895,"lo2":-89.0444,"dy":0.0017,"dx":0.0017,"nx":28,"ny":28,"refTime":"2025-11-04T03:00:00:Z","depth":0,"parameterNumber":3,"parameterNumberName":"V-component_of_WINDS"},"data":[0,0,0,0,0,0,0,0,0,0,0,0,0,0,0,0,0,0,0,0,0,0,0,0,0,0,0,0,0,0,0,0,0,0,0,0,0,0,0,0,0,0,0,0,0,0,0,0,0,0,0,0,0,0,0,0,0,0,2.1517,2.1517,0,2.1534,2.1534,2.1535,2.1511,2.151,2.1509,2.1508,2.1524,2.1525,2.1526,0,0,0,0,0,0,0,0,0,0,0,0,0,2.1462,2.1463,2.1517,2.1517,2.1518,2.1534,2.1534,2.1535,2.1511,2.151,2.1509,2.1508,2.1523,2.1525,2.1526,0,0,0,0,0,0,0,0,0,0,0,0,0,2.1483,2.1463,2.1517,2.1508,2.1507,2.1534,2.1534,2.1535,2.1511,2.151,2.1509,2.1507,2.1523,2.1525,2.1526,2.1563,0,0,2.1532,2.1533,0,0,0,0,0,0,0,0,2.1482,2.1485,2.1509,2.1508,2.1508,2.1519,2.1521,2.1544,2.1511,2.151,2.1508,2.1507,2.1523,2.1525,2.1531,2.1564,2.1564,2.1532,2.1533,2.1534,2.1534,0,0,0,0,0,0,0,2.148,2.1484,2.1524,2.1509,2.1509,2.1502,2.1504,2.1525,2.1523,2.151,2.1508,2.151,2.1523,2.1529,2.1531,2.1564,2.1532,2.1534,2.1535,2.1535,2.1627,2.1628,0,0,0,0,0,0,2.148,2.1483,2.1523,2.1524,2.1491,2.1504,2.1506,2.1517,2.1523,2.1523,2.1511,2.1509,2.1527,2.1529,2.1531,2.1574,2.1534,2.1536,2.1537,2.1626,2.1627,2.1629,0,0,0,0,0,0,2.1479,2.1484,2.1523,2.1503,2.1508,2.1506,2.1519,2.1518,2.1524,2.1524,2.1524,2.1519,2.1526,2.1529,2.1555,2.1574,2.1536,2.1538,2.1624,2.1626,2.1628,2.1659,0,0,0,0,0,0,2.1478,2.1484,2.1498,2.1504,2.1509,2.1547,2.152,2.1519,2.1528,2.1525,2.1531,2.1531,2.1525,2.1553,2.1557,2.1576,2.1539,2.1622,2.1625,2.1627,2.1656,2.1662,2.1667,0,0,0,0,0,2.1476,2.1506,2.1499,2.1504,2.1527,2.1548,2.1551,2.1544,2.1529,2.1543,2.1543,2.153,2.1571,2.1555,2.156,2.158,2.1621,2.1624,2.1627,2.1654,2.1661,2.1667,0,0,0,0,0,0,2.1502,2.1506,2.1499,2.1532,2.154,2.1544,2.1561,2.1552,2.1563,2.156,2.1551,2.1553,2.1581,2.1583,2.1565,2.1615,2.1594,2.1598,2.1612,2.1619,2.1624,2.1622,2.1541,0,0,0,0,0,2.1512,2.1529,2.1532,2.1561,2.1565,2.1563,2.1572,2.1566,2.1573,2.1576,2.1578,2.1586,2.16,2.161,2.1623,2.1657,2.1657,2.1673,2.1678,2.1682,2.1685,2.1703,2.1709,2.1639,2.1639,2.1639,0,0,2.1531,2.1536,2.1548,2.1566,2.1571,2.1589,2.1565,2.1585,2.1598,2.1579,2.1604,2.1606,2.1613,2.1643,2.1657,2.1646,2.1705,2.1686,2.1689,2.169,2.1707,2.1713,2.1719,2.1641,2.1641,2.164,0,0,2.1576,2.1582,2.1607,2.1613,2.1621,2.162,2.1626,2.1631,2.1632,2.1657,2.1643,2.1658,2.1683,2.1689,2.1695,2.1742,2.1731,2.1747,2.1774,2.1791,2.1796,2.1801,2.1817,2.1823,2.1751,2.1751,2.1751,0,2.16,2.1626,2.162,2.1641,2.1649,2.1634,2.1658,2.1664,2.1676,2.1682,2.167,2.1701,2.1705,2.1736,2.1747,2.1753,2.1759,2.1746,2.1796,2.1801,2.1805,2.182,2.1827,2.1752,2.1752,2.1752,2.1752,0,2.1654,2.1673,2.1691,2.1704,2.1715,2.1737,2.1733,2.1744,2.1738,2.1737,2.1762,2.1767,2.178,2.1788,2.1781,2.1817,2.181,2.1798,2.1776,2.1814,2.1828,2.1834,2.1755,2.1754,2.1754,2.1753,0,0,2.1716,2.1725,2.1732,2.1737,2.1746,2.176,2.1781,2.1795,2.1804,2.1814,2.1831,2.1853,2.1841,2.1848,2.1842,2.1857,2.1893,2.1842,2.1842,2.1851,2.1932,2.1942,2.1948,2.1886,2.1887,2.1888,2.1932,0,2.176,2.1798,2.1792,2.1828,2.1845,2.183,2.1849,2.1856,2.1856,2.1869,2.1869,2.1884,2.1868,2.1872,2.1886,2.1886,2.1909,2.1883,2.1901,2.1902,2.1899,2.1956,2.1966,2.2006,2.1937,2.1938,2.1939,0,2.1817,2.1829,2.1866,2.1872,2.1879,2.1895,2.1907,2.1921,2.1928,2.1927,2.1935,2.1927,2.1947,2.1926,2.1953,2.1935,2.1943,2.1944,2.1945,2.1946,2.1922,2.1957,2.2019,2.2025,2.1948,2.1947,2.1946,0,2.1857,2.1882,2.1908,2.1913,2.192,2.1932,2.1936,2.1942,2.1951,2.1961,2.1967,2.1979,2.1986,2.1996,2.1991,2.1976,2.2019,2.1997,2.2018,2.2018,2.2027,2.2026,2.209,2.2033,2.2033,2.2033,2.2033,0,2.1907,2.193,2.1926,2.1941,2.1967,2.196,2.1985,2.1987,2.1993,2.2008,2.1996,2.2011,2.2004,2.2017,2.2013,2.2036,2.204,2.2039,2.2037,2.2039,2.2039,2.2043,2.204,2.2034,2.2034,2.2034,2.2033,0,2.1955,2.1954,2.198,2.1985,2.1987,2.2006,2.201,2.2024,2.2023,2.2042,2.2046,2.2045,2.206,2.2056,2.2073,2.207,2.2099,2.2095,2.2097,2.2095,2.2116,2.2114,2.2184,2.2192,2.213,2.2131,2.2131,0,2.1987,2.2004,2.2011,2.2021,2.2026,2.2041,2.205,2.2045,2.2054,2.2064,2.2077,2.2091,2.2102,2.2127,2.2127,2.214,2.2135,2.2159,2.2137,2.2138,2.2134,2.2133,2.2134,2.2163,2.2163,2.2164,2.2165,0,2.2042,2.2041,2.2054,2.2068,2.2079,2.2089,2.2098,2.2106,2.2101,2.2112,2.2128,2.2137,2.2154,2.2168,2.218,2.2182,2.2172,2.2172,2.2177,2.2179,2.2179,2.2178,2.2108,2.217,2.2169,2.2169,2.2169,2.2168,2.2083,2.2098,2.2105,2.212,2.2127,2.2135,2.2149,2.215,2.2163,2.2177,2.2173,2.219,2.2197,2.2211,2.2216,2.2229,2.222,2.2228,2.223,2.2231,2.2234,2.2178,2.2231,2.2231,2.2231,2.2231,2.2231,0,2.2137,2.2141,2.2156,2.2169,2.2181,2.2171,2.218,2.219,2.2207,2.2214,2.2225,2.2243,2.2257,2.2258,2.2271,2.2281,2.2277,2.2285,2.2283,2.2284,2.2241,2.2235,2.2288,2.2288,2.2288,2.2288,2.2288,2.2288,2.2167,2.2191,2.219,2.2217,2.2221,2.2239,2.2245,2.2252,2.2258,2.2279,2.229,2.2291,2.2296,2.2309,2.2321,2.2321,2.2325,2.2335,2.2333,2.2293,2.2287,2.2282,2.2276,2.2336,2.2336,2.2374,2.2375,2.2375]}]]